RADUGA-1M 3 [+]

Last updated on Jan. 21, 2021, 6:16 a.m. UTC

1 39375U 13062A   21020.93938309  .00000164  00000-0  00000-0 0  9999
2 39375   0.9692  95.5417 0006855 312.6224  85.4907  1.00272940 26343
UTC
Height (km)
Latitude
Longitude
Inclination
Orbital Period
UTC large
Height (km)
Speed (km/s)
/
Latitude / Longitude
Inclination (degrees)
Orbital Period (minutes)
Azimuth
Elevation
Range (km)
Doppler Factor
iOS Compass Heading
iOS Angle

Next 30 passes for location: Hong Kong

Rise time Rise Azimuth (degrees) Set time Set Azimuth (degrees) Duration Max altitude (degrees)

No matching passes for this satellites